Regional Weather Roundup
Issued by NWS

Home | Current Version | Previous Version | Graphics & Text | Print | Product List | Glossary On
Versions: 1 2 3 4 5 6 7 8 9 10 11 12 13 14 15 16 17 18 19 20 21 22 23 24 25 26 27 28 29 30 31 32 33 34 35 36 37 38 39 40 41 42 43 44 45 46 47 48 49 50
000
ASUS43 KMPX 290410
RWRMN
WEATHER ROUNDUP FOR MINNESOTA
NATIONAL WEATHER SERVICE TWIN CITIES/CHANHASSEN MN
1100 PM CDT TUE JUL 28 2015


NOTE: "FAIR" INDICATES FEW OR NO CLOUDS BELOW 12,000 FEET WITH NO
SIGNIFICANT WEATHER AND/OR OBSTRUCTIONS TO VISIBILITY. N/A MEANS
CURRENT SKY AND/OR WEATHER CONDITIONS ARE NOT AVAILABLE.

MNZ060>063-068>070-290500-
   Twin Cities Metro

CITY           SKY/WX    TMP DP  RH WIND       PRES   REMARKS
TWIN CITIES    PTCLDY    74  59  59 W7        29.91R
ST PAUL        CLEAR     73  59  61 W7        29.91R
CRYSTAL        CLEAR     73  60  63 W8        29.91R
BLAINE         CLEAR     73  61  64 SW6       29.92R
LAKEVILLE      CLEAR     68  63  83 SW3       29.95R
EDEN PRAIRIE   CLEAR     70  61  73 W3        29.91R
SOUTH ST PAUL  CLEAR     74  59  59 W6        29.92R
LAKE ELMO      FAIR      70  61  73 W7        29.92S
$$
MNZ001>005-007-008-013>017-022>024-027-028-290500-
   Northwest Minnesota

CITY           SKY/WX    TMP DP  RH WIND       PRES   REMARKS
BEMIDJI        CLEAR     67  50  54 SW14      29.73F
HALLOCK        CLOUDY    66  52  59 SW25G40   29.45F
ROSEAU         CLEAR     66  54  63 S21G30    29.53F
WARROAD        CLEAR     66  54  63 SW17G26   29.55F
THIEF RVR FALL CLOUDY    66  50  55 SW21G36   29.60F
CROOKSTON      CLOUDY    68  50  52 SW29G39   29.62F
FOSSTON        PTCLDY    63  52  67 SW22G35   29.69F
DETROIT LAKES  CLEAR     68  48  49 SW22G29   29.80F
MOORHEAD       CLEAR     66  48  52 SW17G23   29.76F
PARK RAPIDS    CLEAR     69  49  48 SW15G26   29.79S
MAHNOMEN       FAIR      65  50  57 SW18G28   29.73F
$$
MNZ006-009>011-018-025>026-290500-
   North Central Minnesota

CITY           SKY/WX    TMP DP  RH WIND       PRES   REMARKS
BAUDETTE       PTCLDY    68  51  54 SW18G31   29.60F
FLAG ISLAND    CLOUDY    70  54  56 S30G44    29.50F
INTL FALLS     CLEAR     67  56  67 VRB3      29.66F
WASKISH        MOCLDY    70  54  56 SW24G31   29.66F
BIG FORK       CLEAR     66  55  68 SW10      29.72F
LONGVILLE      CLEAR     70  52  52 SW9G25    29.79S
GRAND RAPIDS   CLEAR     66  55  68 S8        29.79S
CRANE LAKE     CLEAR     70  55  60 S5        29.74R
ORR            PTCLDY    66  54  63 CALM      29.71F
COOK           PTCLDY    70  57  64 S5        29.76S
WALKER         FAIR      67  51  56 SW14G21   29.76S
$$
MNZ012-019>021-037-290500-
   Northeast Minnesota

CITY           SKY/WX    TMP DP  RH WIND       PRES   REMARKS
DULUTH         CLEAR     71  59  65 W13       29.81R
ELY            PTCLDY    72  55  56 W14G21    29.76R
HIBBING        CLEAR     68  57  68 S5        29.77F
EVELETH        CLEAR     70  55  60 SW10G16   29.79F
DULUTH HARBOR  CLEAR     77  63  61 W21G32    29.79R
TWO HARBORS    PTCLDY    77  68  73 W15       29.76S
SILVER BAY     CLEAR     73  68  83 CALM      29.75S
GRAND MARAIS     N/A     61  59  93 NE6       29.72F
G MARAIS ARPRT MOCLDY    70  63  78 S7        29.78F
$$
MNZ029>031-032-039>041-046>048-054>057-064-290500-
   West Central Minnesota

CITY           SKY/WX    TMP DP  RH WIND       PRES   REMARKS
FERGUS FALLS   CLEAR     64  52  63 SW12      29.84S
WHEATON        CLEAR     66  50  55 W13       29.91R
MORRIS         CLEAR     64  55  72 SW8       29.90R
ALEXANDRIA     CLEAR     68  51  54 W16G22    29.90R
ELBOW LAKE     FAIR      66  52  60 SW12G18   29.88R
WADENA         CLEAR     68  50  52 SW16G26   29.83S
GLENWOOD       CLEAR     68  52  56 W14G20    29.92R
APPLETON       CLEAR     64  55  72 SW8       29.93R
BENSON         CLEAR     64  54  68 W3        29.93R
ORTONVILLE     CLEAR     64  54  68 SW3       29.93R
MADISON        CLEAR     66  54  63 W7        29.95R
WILLMAR        FAIR      66  61  82 SW7       29.97R
$$
MNZ033>034-036-042>043-049>051-058-059-290500-
   Central Minnesota

CITY           SKY/WX    TMP DP  RH WIND       PRES   REMARKS
ST CLOUD       CLEAR     67  60  78 W8        29.90R
SAUK CENTRE    FAIR      66  53  63 SW9       29.91R
PAYNESVILLE    CLEAR     64  57  78 S8        29.94R
AITKIN         CLEAR     72  55  56 SW14G21   29.82R
PINE RIVER     CLEAR     70  54  56 SW9G16    29.85S
BRAINERD       CLEAR     68  56  65 SW10      29.85R
STAPLES        CLEAR     68  48  49 SW10G20   29.85R
LONG PRAIRIE   FAIR      68  50  52 SW14G20   29.90R
LITTLE FALLS   CLEAR     68  54  60 SW5       29.89R
LITCHFIELD     CLEAR     70  63  78 W6        29.95R
BUFFALO        CLEAR     70  61  73 S6        29.94R
MAPLE LAKE     CLEAR     68  63  83 S3        29.93R
$$
MNZ037-044-045-052-053-290500-
   East Central Minnesota

CITY           SKY/WX    TMP DP  RH WIND       PRES   REMARKS
PRINCETON      CLEAR     70  61  73 CALM      29.91R
MORA           CLEAR     68  57  68 SW5       29.88R
CAMBRIDGE      CLEAR     72  57  60 S5        29.89R
RUSH CITY      CLEAR     69  58  68 SW5       29.89R
MOOSE LAKE     CLEAR     64  57  77 SW6       29.82S
HINCKLEY       FAIR      66  61  82 SW6       29.86R
CLOQUET        CLEAR     70  55  60 SW7       29.82S
MCGREGOR       CLEAR     68  57  68 SW6       29.83S
$$
MNZ071>073-080-081-089-090-097-098-290500-
   Southwest Minnesota

CITY           SKY/WX    TMP DP  RH WIND       PRES   REMARKS
MONTEVIDEO     CLEAR     66  55  68 W3        29.98R
GRANITE FALLS  CLEAR     63  59  86 CALM      30.00R
CANBY          CLEAR     67  55  65 SW6       29.98R
MARSHALL       CLEAR     64  55  72 W5        30.01R
REDWOOD FALLS  CLEAR     69  60  73 W10       29.97R
OLIVIA         CLEAR     61  55  82 SW6       29.97R
PIPESTONE      CLEAR     63  57  82 CALM      30.04R
WINDOM         PTCLDY    64  59  82 CALM      30.00S
WORTHINGTON    PTCLDY    63  57  82 W6        30.02R
JACKSON        MOCLDY    64  61  88 S5        30.02R
TRACY          CLEAR     66  59  77 W6        30.01R
SLAYTON        CLEAR     64  58  81 CALM      30.04R
$$
MNZ065>067-074>077-082>085-091>093-290500-
   South Central Minnesota

CITY           SKY/WX    TMP DP  RH WIND       PRES   REMARKS
MANKATO        PTCLDY    70  59  68 W5        29.96R
NEW ULM        CLEAR     66  61  82 SW6       29.96S
ST JAMES       PTCLDY    66  63  88 SW3       29.99R
FAIRMONT       MOCLDY    68  57  68 W7        29.99S
GLENCOE        CLEAR     68  63  83 SW3       29.93R
FARIBAULT      PTCLDY    70  64  83 W7        29.96R
OWATONNA       MOCLDY    70  63  78 W7        29.97R
WASECA         PTCLDY    64  61  88 W3        29.98R
ALBERT LEA     CLOUDY    72  64  78 W3        29.99R
$$
MNZ078>079-086>088-094>096-290500-
   Southeast Minnesota

CITY           SKY/WX    TMP DP  RH WIND       PRES   REMARKS
ROCHESTER      CLOUDY    74  71  91 W9        29.96R
RED WING       PTCLDY    75  64  69 W7        29.91R
STANTON        PTCLDY    70  61  71 W6        29.93R
DODGE CENTER   MOCLDY    73  64  73 W9        29.97R
WINONA         CLOUDY    79  72  78 W5        29.91R
AUSTIN         CLOUDY    75  68  78 W9        29.97R
PRESTON        CLOUDY    74  70  86 W7        29.95R
$$
ABBREVIATIONS USED IN REMARKS
   TC - TEMPERATURES IN CELSIUS
  WCI - WIND CHILL INDEX
   HX - HEAT INDEX
  VSB - VISIBILITY
$$



USA.gov is the U.S. government's official web portal to all federal, state and local government web resources and services.